Terminal Aerodrome Forecast
Issued by NWS Billings, MT

Home | Current Version | Previous Version | Graphics & Text | Print | Product List | Glossary On
Versions: 1 2 3 4 5 6 7 8 9 10 11 12 13 14 15 16 17 18 19 20 21 22 23 24 25 26 27 28 29 30 31 32 33 34 35 36 37
000
FTUS45 KBYZ 011740
TAFMLS
TAF
KMLS 011740Z 0118/0218 36010KT 5SM FU SCT070
     FM012000 36011G25KT 5SM FU VCTS SCT080CB BKN100
     FM020600 04010KT 5SM FU SCT090
     FM021200 33015G20KT 5SM FU FEW050=

USA.gov is the U.S. government's official web portal to all federal, state and local government web resources and services.